Location: Abenicio Salazar Historic District
(35.3000°N, 106.5511°W)
Time: 16:11:22
(UTC+00:00)

Daily predictions for brighter satellites

Satellite Brightness Start Highest point End
(mag) Time Altitude Azimuth Time Altitude Azimuth Time Altitude Azimuth
Cosmos 1844 Rocket 2.6 12:13:00 60° WSW 12:13:02 60° WSW 12:18:29 10° S
Cosmos 1892 Rocket 4.3 12:12:46 12° N 12:16:37 51° E 12:20:52 10° SSE
Cosmos 2278 Rocket 4.2 12:13:29 10° N 12:18:08 25° ENE 12:22:45 10° ESE
CZ-4B R/B 2.6 12:14:52 10° SSE 12:16:57 36° SSE 12:16:57 36° SSE
Cosmos 2322 4.5 12:21:07 34° NNW 12:21:07 34° NNW 12:25:00 10° N
IRIDIUM 106 4.2 12:14:30 10° S 12:19:43 81° W 12:24:57 10° N
Cosmos 2333 Rocket 2.6 12:24:13 42° NW 12:24:13 42° NW 12:29:02 10° N
Cosmos 2237 Rocket 3.2 12:19:00 10° S 12:24:23 48° ESE 12:29:50 10° NNE
Cosmos 546 4.5 12:25:20 85° NNW 12:25:25 88° NNE 12:29:17 10° SE
Cosmos 1461 3.0 12:23:26 27° SSW 12:25:59 90° W 12:30:45 10° NNE
COSMO-SKYMED 1 2.5 12:21:50 10° SSE 12:26:10 83° ENE 12:29:01 21° N
Cosmos 1953 3.5 12:24:04 10° SSE 12:27:51 43° E 12:31:37 10° NNE
USA 276 3.1 12:28:30 39° NE 12:28:30 39° NE 12:31:23 10° ESE
Cosmos 921 Rocket 2.8 12:27:20 10° SSW 12:31:37 73° WNW 12:35:52 10° N
Cosmos 2219 Rocket 2.5 12:31:48 40° WNW 12:32:10 41° WNW 12:37:26 10° N
MOS 1 Rocket 3.8 12:27:58 10° SSE 12:33:06 68° ENE 12:37:58 10° N
SL-24 R/B 4.3 12:31:32 10° S 12:34:26 41° SW 12:34:26 41° SW
Cosmos 44 4.1 12:36:21 34° WSW 12:36:41 35° WSW 12:41:29 10° S
SJ 16-02 1.3 12:36:30 44° NW 12:37:31 57° WSW 12:41:47 10° S
Meteor 2-5 Rocket 4.3 12:38:53 34° W 12:39:12 34° W 12:44:17 10° SSW
Cosmos 1763 Rocket 3.5 12:35:56 10° SSW 12:40:56 55° WNW 12:46:03 10° N
GPS 2-04 Rocket1 2.8 12:40:52 46° W 12:42:01 74° SSW 12:46:10 10° ESE
OAO 3 Rocket 4.3 12:41:27 25° SW 12:42:39 29° SSW 12:46:39 10° SSE
COSMOS 2428 3.1 12:40:28 25° WSW 12:43:11 40° WNW 12:48:32 10° N
Cosmos 841 Rocket 3.6 12:40:14 10° S 12:45:20 74° ESE 12:50:29 10° NNE
Cosmos 1544 Rocket 3.5 12:41:52 10° S 12:46:11 85° E 12:50:31 10° N
Cosmos 1898 Rocket 3.7 12:41:01 10° NNW 12:46:11 71° ENE 12:51:20 10° SSE
ATLAS 5 CENTAUR R/B 3.2 12:44:29 17° N 12:46:13 34° ENE 12:51:38 10° SE
Cosmos 1908 4.2 12:45:02 10° SSE 12:48:41 48° E 12:52:22 10° NNE
Cosmos 1689 Rocket 2.4 12:45:59 10° SSE 12:48:52 62° ENE 12:51:09 15° N
YAOGAN 6 2.9 12:45:17 10° NNE 12:48:58 70° E 12:52:38 10° S
Cosmos 1513 Rocket 4.5 12:42:55 10° SSW 12:49:11 62° W 12:55:24 10° N
Cosmos 1570 Rocket 4.4 12:44:50 10° S 12:49:59 66° ESE 12:55:10 10° NNE
Okean 1-7 Rocket 3.6 12:48:56 10° N 12:53:30 88° E 12:57:59 10° S
OAO 2 Rocket 3.2 12:53:35 25° W 12:56:24 85° S 13:01:21 10° E
ERS-2 2.2 12:52:52 10° S 12:56:25 53° WSW 12:58:56 18° NNW
Cosmos 1758 4.0 12:53:04 10° SW 12:56:38 31° WNW 13:00:15 10° NNW
Cosmos 1980 3.6 12:51:03 10° SSW 12:56:43 81° WNW 13:02:24 10° NNE
Meteor PRIRODA 4.1 12:56:01 10° N 12:59:19 34° WNW 13:02:37 10° SW
GEOS 3 Rocket 3.6 12:54:11 10° SSE 12:59:30 76° WSW 13:04:31 12° NW
Cosmos 1464 Rocket 4.0 12:54:02 10° SSW 12:59:57 52° W 13:05:56 10° N
NOSS 0 Rocket 3.9 12:54:37 10° SW 13:00:44 62° WNW 13:06:52 10° NNE
CZ-4B R/B 3.4 12:59:13 10° NNW 13:02:23 29° WNW 13:05:35 10° SW
Lacrosse 4 Rocket 3.2 13:01:40 10° S 13:05:27 35° ESE 13:09:21 10° NE
Cosmos 2208 Rocket 4.2 13:02:07 10° SSW 13:07:33 80° ESE 13:13:00 10° NNE
FALCON 9 DEB 3.4 13:06:24 22° WSW 13:08:14 44° NW 13:11:31 10° NE
Cosmos 1726 4.3 13:05:36 10° SW 13:11:10 11° NNW 13:11:21 10° NNW
Cosmos 1626 Rocket 3.9 13:06:03 10° N 13:10:31 69° E 13:14:57 10° SSE
Cosmos 1455 Rocket 3.9 13:09:39 10° SW 13:13:23 27° WNW 13:17:07 10° NNW
CZ-4B DEB 4.2 13:08:05 10° NNE 13:13:41 89° WNW 13:19:14 10° SSW
SMAP 3.6 13:09:45 10° NNE 13:14:23 63° E 13:18:59 10° S
Cosmos 1814 Rocket 3.9 13:14:10 10° SSW 13:19:17 72° WNW 13:24:25 10° NNE
Spot 2 3.8 13:17:20 10° N 13:21:23 76° WNW 13:25:25 10° SSW
Cosmos 1703 3.4 13:18:30 10° N 13:22:24 77° E 13:26:17 10° S
Meteor 1-16 Rocket 4.3 13:16:52 10° SSW 13:22:38 63° W 13:28:31 10° N
Cosmos 1937 Rocket 3.5 13:18:17 10° NNW 13:23:34 72° WSW 13:28:44 10° S
NOAA 6 4.0 13:19:47 10° N 13:24:57 68° WNW 13:30:05 10° SSW
Lacrosse 5 rocket 3.6 13:23:11 10° N 13:25:32 15° NE 13:27:50 10° ENE
CENTAUR R/B 4.1 13:20:45 10° S 13:25:47 37° ESE 13:31:35 10° NE
Envisat 3.3 13:22:24 10° N 13:27:13 45° WNW 13:32:01 10° SW
Gbstr 26 Del rocket 4.5 13:19:55 10° SW 13:27:22 79° NW 13:35:34 10° NE
CZ-2C R/B 1.8 13:25:04 10° WSW 13:29:02 53° SSE 13:32:45 10° E
Okean O Rocket 2.1 13:24:46 10° NNE 13:29:07 65° ESE 13:33:25 10° S
Cosmos 372 Rocket 4.5 13:25:45 10° NNW 13:30:59 66° ENE 13:36:10 10° SSE
AQUARIUS 4.2 13:27:29 10° NNE 13:32:00 88° ESE 13:36:29 10° SSW
USA 238 DEB 4.2 13:26:19 10° SSW 13:32:42 62° ESE 13:39:19 10° NE
USA 238 4.3 13:26:27 10° SSW 13:32:49 62° ESE 13:39:26 10° NE
BREEZE-M (TANK) 3.6 13:31:44 10° NNW 13:33:08 16° NNE 13:34:37 10° ENE
Cosmos 1092 Rocket 4.0 13:28:38 10° N 13:34:49 89° E 13:40:59 10° S
Cosmos 1340 2.6 13:31:06 10° N 13:34:52 85° W 13:38:37 10° S
SL-19 R/B 4.4 13:31:04 10° N 13:34:55 47° WNW 13:38:17 10° SW
Cosmos 2034 Rocket 4.5 13:30:23 10° SW 13:36:15 39° WNW 13:42:10 10° N
Cosmos 1400 Rocket 3.1 13:34:06 10° SSW 13:37:59 45° W 13:41:56 10° N
Atlas Centaur 2 3.6 13:30:34 10° WSW 13:38:42 60° S 13:46:59 10° E
H-2A R/B 4.3 13:38:42 10° NW 13:40:41 14° WNW 13:42:42 10° WSW
BREEZE-M DEB (TANK) 3.7 13:37:47 10° W 13:40:44 36° NNW 13:48:39 10° NE
H-2A R/B 2.7 13:36:56 10° N 13:41:21 58° WNW 13:45:46 10° SSW
Cosmos 1328 3.7 13:40:42 10° N 13:44:37 78° W 13:48:31 10° S
SL-4 R/B 1.8 13:42:25 10° SW 13:46:09 83° NW 13:50:15 10° NE
ATLAS CENTAUR R/B 1.0 13:45:30 10° SSW 13:49:15 80° WNW 13:52:55 10° NNE
Cosmos 1602 Rocket 3.7 13:45:38 10° NNW 13:49:59 56° W 13:54:21 10° S
